Home > Weather > Dallas > Past weeks

Flag for USA Weather for the Past 2 Weeks in Dallas, Texas, USA

Now
57 °F

Clear.


Feels Like: 57 °F
Forecast: 54 / 81 °F
Wind: No wind

Location: Dallas Love Field

Current Time: May 4, 2016 at 6:42:26 AM

Latest Report: May 4, 2016 at 5:53 AM


Visibility: 10 mi

Pressure: 30.04 "Hg

Humidity: 83%

Dew Point: 52 °F

Location of DallasLocation

Historic Weather in Dallas — Graph

°F

Dallas Temperature Yesterday

Maximum temperature yesterday: 74 °F (at 4:53 PM)
Minimum temperature yesterday: 50 °F (at 3:53 AM)
Average temperature yesterday: 63 °F

High & Low Weather Summary for the Past Weeks

 TemperatureHumidityPressure
High86 °F (Apr 25, 3:53 PM)97% (Apr 20, 3:01 AM)30.15 "Hg (Apr 20, 3:01 AM)
Low50 °F (May 3, 3:53 AM)24% (Apr 27, 4:53 PM)29.52 "Hg (Apr 29, 5:53 PM)
Average70 °F66%29.88 "Hg
* Reported Apr 19 4:53 AM — May 4 4:53 AM, Dallas, Weather by CustomWeather, © 2016

Note: Actual official high and low records may vary slightly from our data, if they occured in-between our weather recording intervals... More about our weather records

Advertising

Dallas Weather History for the Previous 24 Hours

Scroll right to see more
 ConditionsComfort  
Time TempWeatherWind HumidityBarometerVisibility
4:53 AM
Wed, May 4
58 °FClear.No wind84%30.03 "Hg10 mi
3:53 AM58 °FClear.3 mph84%30.03 "Hg10 mi
2:53 AM59 °FClear.No wind81%30.04 "Hg10 mi
1:53 AM61 °FPassing clouds.No wind70%30.05 "Hg10 mi
12:53 AM63 °FPassing clouds.No wind63%30.05 "Hg10 mi
11:53 PM
Tue, May 3
66 °FPassing clouds.No wind47%30.05 "Hg10 mi
10:53 PM67 °FPassing clouds.5 mph47%30.04 "Hg10 mi
9:53 PM68 °FPassing clouds.5 mph45%30.02 "Hg10 mi
8:53 PM69 °FPartly sunny.No wind44%30.04 "Hg10 mi
7:53 PM71 °FPassing clouds.6 mph39%30.03 "Hg10 mi
6:53 PM73 °FPassing clouds.6 mph34%30.01 "Hg10 mi
5:53 PM74 °FPassing clouds.5 mph32%30.00 "Hg10 mi
4:53 PM74 °FPassing clouds.9 mph35%30.01 "Hg10 mi
3:53 PM73 °FPassing clouds.7 mph36%30.03 "Hg10 mi
2:53 PM73 °FPassing clouds.9 mph36%30.05 "Hg10 mi
1:53 PM71 °FPassing clouds.10 mph39%30.07 "Hg10 mi
12:53 PM70 °FPassing clouds.8 mph38%30.10 "Hg10 mi
11:53 AM69 °FPassing clouds.7 mph38%30.12 "Hg10 mi
10:53 AM66 °FPassing clouds.6 mph47%30.13 "Hg10 mi
9:53 AM64 °FSunny.5 mph54%30.12 "Hg10 mi
8:53 AM59 °FSunny.7 mph67%30.12 "Hg10 mi
7:53 AM55 °FSunny.No wind80%30.11 "Hg10 mi
6:53 AM50 °FPassing clouds.No wind89%30.09 "Hg10 mi
Weather by CustomWeather, © 2016

See weather overviewHow to use our weather pages